This is the latest recevied weather packets stored in our database for station/object KC1TWD. If no packets are shown the sender has not sent any weather packets the latest 10 day(s).
| Time | Temp. | Humidity | Pressure | Rain* | Wind** | Luminosity | Snow |
|---|---|---|---|---|---|---|---|
| 1778095207 | 16.67° C | 96% | 1005.5 hPa | 0 mm | - | - | - |
| 1778094904 | 16.67° C | 96% | 1005.5 hPa | 0 mm | - | - | - |
| 1778094600 | 16.67° C | 96% | 1005.4 hPa | 0 mm | - | - | - |
| 1778094298 | 16.67° C | 96% | 1005.5 hPa | 0 mm | - | - | - |
| 1778093994 | 16.67° C | 97% | 1005.4 hPa | 1.78 mm | - | - | - |
| 1778093691 | 16.11° C | 96% | 1005.4 hPa | 0 mm | - | - | - |
| 1778093388 | 16.11° C | 96% | 1005.6 hPa | 0 mm | - | - | - |
| 1778093085 | 16.11° C | 97% | 1005.8 hPa | 0 mm | - | - | - |
| 1778092782 | 16.11° C | 97% | 1006.2 hPa | 0 mm | - | - | - |
| 1778092477 | 16.11° C | 97% | 1006.1 hPa | 1.78 mm | - | - | - |
| 1778092175 | 16.11° C | 96% | 1006.2 hPa | 3.05 mm | - | - | - |
| 1778091872 | 16.11° C | 97% | 1006.4 hPa | 0 mm | - | - | - |
| 1778091569 | 16.11° C | 96% | 1006.6 hPa | 0 mm | - | - | - |
| 1778091267 | 16.67° C | 96% | 1006.6 hPa | 1.78 mm | - | - | - |
| 1778090964 | 16.67° C | 95% | 1006.6 hPa | 1.78 mm | - | - | - |
| 1778090660 | 16.67° C | 95% | 1006.7 hPa | 1.27 mm | - | - | - |
| 1778090357 | 16.67° C | 94% | 1006.6 hPa | 1.27 mm | - | - | - |
| 1778090054 | 16.67° C | 94% | 1006.7 hPa | 1.78 mm | - | - | - |
| 1778089751 | 16.67° C | 93% | 1006.7 hPa | 1.78 mm | - | - | - |
| 1778089449 | 16.67° C | 93% | 1007 hPa | 0 mm | - | - | - |
| 1778089146 | 16.67° C | 92% | 1006.8 hPa | 1.27 mm | - | - | - |
| 1778088842 | 17.22° C | 91% | 1007 hPa | 1.27 mm | - | - | - |
| 1778088539 | 17.22° C | 89% | 1007 hPa | 0 mm | - | - | - |
| 1778088236 | 17.78° C | 88% | 1006.8 hPa | 1.78 mm | - | - | - |
| 1778087933 | 17.78° C | 85% | 1007 hPa | 1.78 mm | - | - | - |
* Rain latest hour (hover to see other rain measurements)
** Current wind speed in m/s (hover to see current wind gust speed)